Location: Unspecified
(0.0000°N, 0.0000°E)
Time: 01:29:50
(UTC+00:00)

LightSail 2 - Pass Details

Date: 25 November 2019
Orbit: 696 x 729 km, 24.0° (Epoch: 10 December)

Event Time Altitude Azimuth Distance (km) Brightness Sun altitude
Exits shadow 04:05:02 35° 4° (N) 1,139 6.0 -23.7°
Maximum altitude 04:05:50 37° 25° (NNE) 1,095 6.1 -23.5°
Drops below altitude 10° 04:10:38 10° 92° (E) 2,199 8.6 -22.4°
Sets 04:13:14 0° 100° (E) 3,126 9.9 -21.8°
